TimeEDT,TemperatureF,Dew PointF,Humidity,Sea Level PressureIn,VisibilityMPH,Wind Direction,Wind SpeedMPH,Gust SpeedMPH,PrecipitationIn,Events,Conditions,WindDirDegrees,DateUTC
12:54 AM,39.9,28.0,63,30.19,10.0,NW,3.5,-,N/A,,Clear,310,2013-03-30 04:54:00
1:54 AM,37.0,27.0,67,30.18,10.0,Calm,Calm,-,N/A,,Clear,0,2013-03-30 05:54:00
2:54 AM,36.0,28.0,73,30.18,10.0,Calm,Calm,-,N/A,,Clear,0,2013-03-30 06:54:00
3:54 AM,35.1,27.0,72,30.18,10.0,NW,3.5,-,N/A,,Clear,320,2013-03-30 07:54:00
4:54 AM,37.0,27.0,67,30.18,10.0,NW,5.8,-,N/A,,Clear,320,2013-03-30 08:54:00
5:54 AM,35.1,27.0,72,30.19,10.0,Calm,Calm,-,N/A,,Clear,0,2013-03-30 09:54:00
6:54 AM,32.0,26.1,79,30.20,10.0,WNW,3.5,-,N/A,,Clear,300,2013-03-30 10:54:00
7:54 AM,39.9,28.9,65,30.21,10.0,WNW,5.8,-,N/A,,Clear,300,2013-03-30 11:54:00
8:54 AM,46.0,28.0,50,30.22,10.0,NW,6.9,-,N/A,,Clear,310,2013-03-30 12:54:00
9:54 AM,48.9,28.0,44,30.22,10.0,NW,8.1,-,N/A,,Clear,320,2013-03-30 13:54:00
10:54 AM,52.0,27.0,38,30.21,10.0,NNW,8.1,-,N/A,,Clear,340,2013-03-30 14:54:00
11:54 AM,53.1,27.0,37,30.20,10.0,WNW,10.4,16.1,N/A,,Scattered Clouds,290,2013-03-30 15:54:00
12:54 PM,54.0,24.1,31,30.18,10.0,WNW,9.2,19.6,N/A,,Scattered Clouds,300,2013-03-30 16:54:00
1:54 PM,54.0,23.0,30,30.15,10.0,NNW,8.1,-,N/A,,Mostly Cloudy,330,2013-03-30 17:54:00
2:54 PM,57.0,21.9,26,30.13,10.0,NNW,9.2,16.1,N/A,,Scattered Clouds,330,2013-03-30 18:54:00
3:54 PM,57.0,19.9,24,30.12,10.0,WSW,13.8,18.4,N/A,,Scattered Clouds,250,2013-03-30 19:54:00
4:54 PM,57.9,21.9,25,30.11,10.0,WNW,10.4,-,N/A,,Scattered Clouds,290,2013-03-30 20:54:00
5:54 PM,55.9,19.0,24,30.12,10.0,NW,6.9,-,N/A,,Clear,320,2013-03-30 21:54:00
6:54 PM,54.0,21.0,28,30.12,10.0,West,9.2,-,N/A,,Clear,270,2013-03-30 22:54:00
7:54 PM,50.0,23.0,35,30.13,10.0,WSW,5.8,-,N/A,,Clear,250,2013-03-30 23:54:00
8:54 PM,50.0,23.0,35,30.14,10.0,WSW,4.6,-,N/A,,Clear,240,2013-03-31 00:54:00
9:54 PM,48.0,23.0,37,30.16,10.0,WSW,5.8,-,N/A,,Clear,240,2013-03-31 01:54:00
10:54 PM,48.0,25.0,41,30.16,10.0,SSW,11.5,-,N/A,,Clear,210,2013-03-31 02:54:00
11:54 PM,46.0,28.0,50,30.16,10.0,SSW,5.8,-,N/A,,Clear,210,2013-03-31 03:54:00